Regional Weather Roundup
Issued by NWS Memphis, TN

Home | Current Version | Previous Version | Text Only | Print | Product List | Glossary On
Versions: 1 2 3 4 5 6 7 8 9 10 11 12 13 14 15 16 17 18 19 20 21 22 23 24 25 26 27 28 29 30 31 32 33 34 35 36 37 38 39 40 41 42 43 44 45 46 47 48 49 50
887
ASUS44 KMEG 220410
RWRMEG
MEMPHIS CWA HOURLY WEATHER ROUNDUP
NATIONAL WEATHER SERVICE MEMPHIS TN
1100 PM CDT MON AUG 21 2017

...WEST TENNESSEE...

CITY           SKY/WX    TMP DP  RH WIND       PRES   REMARKS
MEMPHIS INTL   PTCLDY    82  75  79 S8        30.10S
NWS MEMPHIS      N/A     81 N/A N/A MISG        N/A
JACKSON        CLEAR     77  76  96 S3        30.10F
COVINGTON      CLEAR     81  77  89 S5        30.08F
SOMERVILLE     PTCLDY    81  77  89 CALM      30.10S
BOLIVAR        CLOUDY    81  77  89 S3        30.10F
LEXINGTON      CLEAR     79  73  83 S3        30.10F
SELMER         PTCLDY    75  75 100 CALM      30.12S
SAVANNAH       PTCLDY    75  73  94 CALM      30.11F
DYERSBURG      CLEAR     81  77  88 S3        30.08F
UNION CITY     PTCLDY    79  75  89 S6        30.06F
PARIS          CLEAR     77  73  88 CALM      30.08F
HUNTINGDON     CLEAR     75  73  94 CALM      30.09S


...EASTERN ARKANSAS...

CITY           SKY/WX    TMP DP  RH WIND       PRES   REMARKS
JONESBORO      CLEAR     80  77  90 S7        30.06F
WEST MEMPHIS   PTCLDY    78  76  93 S5        30.07F
NEWPORT        CLEAR     78  76  93 S5        30.07F
WALNUT RIDGE   CLEAR     79  73  83 S7        30.06S
BLYTHEVILLE    CLEAR     81  78  91 S5        30.07F
SEARCY         CLEAR     77  77 100 CALM      30.09S FOG
PINE BLUFF     CLEAR     79  76  90 S5        30.09S
MONTICELLO     CLEAR     78  73  84 CALM      30.09F


...NORTH MISSISSIPPI...

CITY           SKY/WX    TMP DP  RH WIND       PRES   REMARKS
TUPELO         CLEAR     80  74  81 CALM      30.12S
OXFORD         CLEAR     75  73  94 CALM      30.13F
BATESVILLE     PTCLDY    76  74  95 CALM      30.11S
TUNICA           N/A     77  73  88 SE5       30.10F
CLARKSDALE       N/A     79  79 100 SW3       30.09F
GREENWOOD      CLEAR     77  75  93 CALM      30.10F
COLUMBUS       CLEAR     76  76 100 CALM      30.11F
STARKVILLE     CLEAR     73  72  94 CALM      30.13S FOG
GOLDEN TRIANGL CLEAR     77  70  78 CALM        N/A


...SOUTHEAST MISSOURI...

CITY           SKY/WX    TMP DP  RH WIND       PRES   REMARKS
KENNETT        CLEAR     82  79  89 S8        30.05F HX  93
MALDEN         CLEAR     81  75  83 S5        30.06F
WEST PLAINS    CLEAR     79  72  79 S7        30.09R
POPLAR BLUFF   CLEAR     80  77  90 S5        30.04F
CAPE GIRARDEAU CLEAR     75  71  87 SE7       30.04F


...NORTHWEST ALABAMA...

CITY           SKY/WX    TMP DP  RH WIND       PRES   REMARKS
MUSCLE SHOALS  CLEAR     75  71  87 CALM      30.14F


...MIDDLE TENNESSEE...

CITY           SKY/WX    TMP DP  RH WIND       PRES   REMARKS
NASHVILLE      CLEAR     77  70  79 S5        30.13F
CLARKSVILLE    CLEAR     75  71  87 CALM      30.10F
COLUMBIA       CLEAR     73  73 100 SE3       30.12S


...WESTERN KENTUCKY...

CITY           SKY/WX    TMP DP  RH WIND       PRES   REMARKS
PADUCAH        CLEAR     81  69  67 S6        30.05F
FORT CAMPBELL  CLEAR     81  73  77 SE3       30.10F


...CENTRAL ARKANSAS...

CITY           SKY/WX    TMP DP  RH WIND       PRES   REMARKS
LITTLE ROCK    CLEAR     79  77  94 S6        30.08S


SKY/WX REPORTED AS FAIR MEANS FEW OR NO CLOUDS BELOW
12 THOUSAND FEET.





USA.gov is the U.S. government's official web portal to all federal, state and local government web resources and services.